Location: ShareBrained
(45.5589°N, 122.6491°W)
Time: 07:34:12
(UTC-08:00)

NOAA 19 - Pass Details

Date: 22 January 2020
Orbit: 840 x 861 km, 99.2° (Epoch: 25 February)

Event Time Altitude Azimuth Distance (km) Brightness Sun altitude
Rises 18:20:57 0° 207° (SSW) 3,412 9.0 -13.6°
Reaches altitude 10° 18:24:03 10° 225° (SW) 2,478 8.6 -14.2°
Maximum altitude 18:27:49 19° 269° (W) 1,931 8.1 -14.8°
Drops below altitude 10° 18:31:37 10° 313° (NW) 2,480 8.1 -15.5°
Sets 18:34:44 0° 331° (NNW) 3,418 8.6 -16.0°
